{"data":{"norad_id":46507,"epoch":"2026-05-24T23:39:01.430208Z","epoch_age_seconds":83414,"freshness":"FRESH","line1":"1 46507U 20068X   26144.98543322  .00020307  00000+0  43384-3 0  9997","line2":"2 46507  97.8628 151.1914 0006070  83.6028 276.5910 15.44871339312153","mean_motion":15.44871339,"eccentricity":0.000607,"inclination_deg":97.8628,"raan_deg":151.1914,"arg_perigee_deg":83.6028,"mean_anomaly_deg":276.591,"bstar":0.00043384,"rev_number":31215,"period_min":93.211645762819,"perigee_km":427.62253812561,"apogee_km":435.88974840153,"semimajor_km":6809.8931432636,"source":"CELESTRAK","updated_at":"2026-05-25T13:38:25.531760Z"}}